This is the latest recevied weather packets stored in our database for station/object KD5HIA. If no packets are shown the sender has not sent any weather packets the latest 10 day(s).
| Time | Temp. | Humidity | Pressure | Rain* | Wind** | Luminosity | Snow |
|---|---|---|---|---|---|---|---|
| 1777593918 | 16.11° C | 88% | 1013.2 hPa | 0 mm | - | 57 W/m² | - |
| 1777593318 | 16.11° C | 88% | 1013 hPa | 0 mm | - | 51 W/m² | - |
| 1777592718 | 16.11° C | 87% | 1013.1 hPa | 0 mm | - | 65 W/m² | - |
| 1777592118 | 16.11° C | 87% | 1013.4 hPa | 0 mm | - | 49 W/m² | - |
| 1777591518 | 16.11° C | 87% | 1013.1 hPa | 0 mm | - | 48 W/m² | - |
| 1777590918 | 16.11° C | 87% | 1013.2 hPa | 0 mm | - | 34 W/m² | - |
| 1777590318 | 16.11° C | 87% | 1013.3 hPa | 0 mm | - | 41 W/m² | - |
| 1777589718 | 16.11° C | 88% | 1012.8 hPa | 0 mm | - | 49 W/m² | - |
| 1777589118 | 15.56° C | 87% | 1012.4 hPa | 0 mm | - | 77 W/m² | - |
| 1777588518 | 15.56° C | 88% | 1012.7 hPa | 0 mm | - | 86 W/m² | - |
| 1777587918 | 15.56° C | 89% | 1012.8 hPa | 0 mm | - | 118 W/m² | - |
| 1777587318 | 15° C | 89% | 1012.9 hPa | 0 mm | - | 66 W/m² | - |
| 1777586718 | 15° C | 89% | 1012.6 hPa | 0 mm | - | 66 W/m² | - |
| 1777586118 | 15° C | 89% | 1012.9 hPa | 0 mm | - | 70 W/m² | - |
| 1777585518 | 15° C | 89% | 1013 hPa | 0 mm | - | 70 W/m² | - |
| 1777584918 | 15.56° C | 88% | 1012.9 hPa | 0 mm | - | 48 W/m² | - |
| 1777584318 | 15.56° C | 88% | 1013 hPa | 0 mm | - | 68 W/m² | - |
| 1777583718 | 16.11° C | 88% | 1012.8 hPa | 0 mm | - | 49 W/m² | - |
| 1777583118 | 16.11° C | 88% | 1013.3 hPa | 0 mm | - | 70 W/m² | - |
| 1777582518 | 16.11° C | 88% | 1013.1 hPa | 0 mm | - | 66 W/m² | - |
| 1777581918 | 16.11° C | 88% | 1013.2 hPa | 0 mm | - | 68 W/m² | - |
| 1777581318 | 16.67° C | 88% | 1013.1 hPa | 0 mm | - | 130 W/m² | - |
| 1777580718 | 16.67° C | 88% | 1012.9 hPa | 0 mm | - | 143 W/m² | - |
| 1777580118 | 16.11° C | 88% | 1012.9 hPa | 0 mm | - | 160 W/m² | - |
| 1777579518 | 16.67° C | 87% | 1013.2 hPa | 0 mm | - | 115 W/m² | - |
* Rain latest hour (hover to see other rain measurements)
** Current wind speed in m/s (hover to see current wind gust speed)